SCP
0 0 0 0 0 0 0 0 0 0 0 0 0 0 0 0 0 0 0 0 0 0 0 0 0 0 0 0 0 0 0 0 0 0 0 0 0 0 0 0 0 0 0
0 0 0 0 0 0 0 0 0 0 0 0 0 0 0 0 0 0 0 0 0 0 0 0 0 0 0 0 0 0 0 0 0 0 0 0 0 0 0 0 0 0 0
0 0 0 0 0 0 0 0 0 0 0 0 0 0 0 0 0 0 0 0 0 0 0 0 0 0 0 0 0 0 0 0 0 0 0 0 0 0 0 0 0 0 0
0 0 0 0 0 0 0 0 0 0 0 0 0 0 0 0 0 0 0 0 0 0 0 0 0 0 0 0 0 0 0 0 0 0 0 0 0 0 0 0 0 0 0
0 0 0 0 0 0 0 0 0 0 0 0 0 0 0 0 0 0 0 0 0 0 0 0 0 0 0 0 0 0 0 0 0 0 0 0 0 0 0 0 0 0 0
0 0 0 0 0 0 0 0 0 0 0 0 0 0 0 0 0 0 0 0 0 0 0 0 0 0 0 0 0 0 0 0 0 0 0 0 0 0 0 0 0 0 0
0 0 0 0 0 0 0 0 0 0 0 0 0 0 0 0 0 0 0 0 0 0 0 0 0 0 0 0 0 0 0 0 0 0 0 0 0 0 0 0 0 0 0
0 0 0 0 0 0 0 0 0 0 0 0 0 0 0 0 0 0 0 0 0 0 0 0 0 0 0 0 0 0 0 0 0 0 0 0 0 0 0 0 0 0 0
0 0 0 0 0 0 0 0 0 0 0 0 0 0 0 0 0 0 0 0 0 0 0 0 0 0 0 0 0 0 0 0 0 0 0 0 0 0 0 0 0 0 0
0 0 0 0 0 0 0 0 0 0 0 0 0 0 0 0 0 0 0 0 0 0 0 0 0 0 0 0 0 0 0 0 0 0 0 0 0 0 0 0 0 0 0
0 0 0 0 0 0 0 0 0 0 0 0 0 0 0 0 0 0 0 0 0 0 0 0 0 0 0 0 0 0 0 0 0 0 0 0 0 0 0 0 0 0 0
0 0 0 0 0 0 0 0 0 0 0 0 0 0 0 0 0 0 0 0 0 0 0 0 0 0 0 0 0 0 0 0 0 0 0 0 0 0 0 0 0 0 0
0 0 0 0 0 0 0 0 0 0 0 0 0 0 0 0 0 0 0 0 0 0 0 0 0 0 0 0 0 0 0 0 0 0 0 0 0 0 0 0 0 0 0
0 0 0 0 0 0 0 0 0 0 0 0 0 0 0 0 0 0 0 0 0 0 0 0 0 0 0 0 0 0 0 0 0 0 0 0 0 0 0 0 0 0 0
0 0 0 0 0 0 0 0 0 0 0 0 0 0 0 0 0 0 0 0 0 0 0 0 0 0 0 0 0 0 0 0 0 0 0 0 0 0 0 0 0 0 0
0 0 0 0 0 0 0 0 0 0 0 0 0 0 0 0 0 0 0 0 0 0 0 0 0 0 0 0 0 0 0 0 0 0 0 0 0 0 0 0 0 0 0
0 0 0 0 0 0 0 0 0 0 0 0 0 0 0 0 0 0 0 0 0 0 0 0 0 0 0 0 0 0 0 0 0 0 0 0 0 0 0 0 0 0 0
0 0 0 0 0 0 0 0 0 0 0 0 0 0 0 0 0 0 0 0 0 0 0 0 0 0 0 0 0 0 0 0 0 0 0 0 0 0 0 0 0 0 0
0 0 0 0 0 0 0 0 0 0 0 0 0 0 0 0 0 0 0 0 0 0 0 0 0 0 0 0 0 0 0 0 0 0 0 0 0 0 0 0 0 0 0
0 0 0 0 0 0 0 0 0 0 0 0 0 0 0 0 0 0 0 0 0 0 0 0 0 0 0 0 0 0 0 0 0 0 0 0 0 0 0 0 0 0 0
0 0 0 0 0 0 0 0 0 0 0 0 0 0 0 0 0 0 0 0 0 0 0 0 0 0 0 0 0 0 0 0 0 0 0 0 0 0 0 0 0 0 0
0 0 0 0 0 0 0 0 0 0 0 0 0 0 0 0 0 0 0 0 0 0 0 0 0 0 0 0 0 0 0 0 0 0 0 0 0 0 0 0 0 0 0
0 0 0 0 0 0 0 0 0 0 0 0 0 0 0 0 0 0 0 0 0 0 0 0 0 0 0 0 0 0 0 0 0 0 0 0 0 0 0 0 0 0 0
0 0 0 0 0 0 0 0 0 0 0 0 0 0 0 0 0 0 0 0 0 0 0 0 0 0 0 0 0 0 0 0 0 0 0 0 0 0 0 0 0 0 0
0 0 0 0 0 0 0 0 0 0 0 0 0 0 0 0 0 0 0 0 0 0 0 0 0 0 0 0 0 0 0 0 0 0 0 0 0 0 0 0 0 0 0
0 0 0 0 0 0 0 0 0 0 0 0 0 0 0 0 0 0 0 0 0 0 0 0 0 0 0 0 0 0 0 0 0 0 0 0 0 0 0 0 0 0 0
Wind_Speed
3 3 1 5 7 8 9 9 9 9 10 10 11 11 11 10 10 10 9 9 9 8 8 8 9 9 9 10 10 10 11 11 12 11 10 10 11 11 11 11 10 7 12
3 2 2 5 7 8 8 8 8 8 8 9 10 10 10 9 9 9 9 8 8 8 8 8 8 9 9 9 10 10 11 11 11 10 9 8 9 10 11 11 10 7 11
2 1 2 6 7 7 7 7 7 7 7 8 8 8 8 8 8 8 7 8 7 7 8 8 8 9 9 9 10 10 10 10 9 9 8 4 5 9 9 9 10 10 10
2 2 2 5 6 7 7 7 6 6 6 6 7 7 7 7 7 7 6 6 7 7 7 8 8 8 8 9 9 9 9 9 8 7 4 3 2 7 8 8 9 9 9
4 4 4 5 5 5 6 6 6 5 5 5 5 5 6 6 6 6 6 6 6 6 6 7 7 8 8 8 8 8 8 7 6 5 3 2 1 5 7 7 7 8 8
5 4 4 6 5 4 4 5 5 4 4 4 4 4 4 4 5 5 5 5 5 5 6 7 7 8 7 7 7 7 7 7 5 3 2 1 0 4 6 7 7 7 7
5 5 5 7 7 5 4 3 3 3 3 3 3 3 3 3 3 4 5 5 5 6 6 7 7 8 8 7 7 7 6 7 4 3 2 1 1 4 6 6 6 6 6
5 5 6 8 7 7 6 4 2 1 2 2 1 1 2 2 2 3 4 5 6 6 7 7 8 8 8 7 7 6 6 6 5 3 2 2 4 5 6 6 5 6 6
7 6 6 5 6 7 7 6 5 3 1 0 0 0 0 0 1 2 4 5 6 7 7 7 8 8 8 8 7 6 6 6 4 3 3 2 5 6 6 6 6 5 5
7 7 6 6 5 4 4 6 6 5 4 2 1 1 1 1 1 2 3 4 5 6 7 7 8 8 8 8 7 6 6 6 4 3 2 3 7 7 7 7 6 6 5
8 7 6 6 6 5 4 5 5 5 5 4 2 2 1 1 1 1 2 4 5 6 7 8 8 8 7 7 7 7 5 3 4 3 3 6 9 9 8 8 8 7 7
7 7 6 6 5 5 4 3 2 3 3 2 2 2 1 1 1 2 3 4 5 5 6 7 8 7 5 3 5 5 3 4 4 3 4 9 10 10 10 9 9 9 8
4 6 6 6 5 5 3 3 2 2 2 2 2 2 1 1 1 1 1 2 3 3 3 4 4 3 3 3 3 3 4 4 3 3 5 10 12 12 12 11 11 10 10
5 6 6 6 6 5 4 3 2 2 2 2 3 2 1 1 1 1 1 2 2 2 2 3 3 3 4 4 5 5 5 4 4 3 5 10 13 14 14 13 12 12 12
5 6 6 6 6 5 4 4 3 3 2 2 2 2 2 1 2 2 2 2 2 2 2 3 4 4 5 5 5 5 6 6 6 5 4 9 12 14 15 15 14 14 14
5 6 6 6 5 5 4 4 3 3 3 2 2 3 3 2 2 2 3 3 3 3 3 4 4 5 5 4 6 6 6 6 6 6 5 6 11 13 15 16 16 15 15
5 5 6 6 6 5 5 4 4 3 3 3 3 3 3 3 3 3 3 3 3 3 4 4 4 4 4 4 6 6 6 6 6 7 6 5 6 10 14 17 17 17 16
4 5 6 6 7 6 5 4 3 3 3 3 3 3 4 4 3 3 3 4 4 3 3 4 4 4 5 5 5 5 5 5 7 7 6 6 5 6 9 15 16 17 17
4 5 6 6 6 6 6 4 4 3 3 3 3 3 4 4 4 3 3 3 3 3 4 4 4 4 5 5 5 5 5 5 6 6 7 7 7 7 6 9 13 14 15
4 4 5 6 6 6 5 4 3 3 3 2 3 3 4 4 4 3 3 4 3 3 3 4 5 4 4 4 5 5 5 6 5 6 8 7 7 8 7 7 7 9 14
5 5 5 6 6 5 4 4 3 3 4 3 3 4 4 4 4 3 4 4 3 3 4 4 4 5 4 2 3 4 4 6 7 7 6 6 7 8 7 8 6 6 6
5 5 5 6 6 5 4 3 3 3 3 3 3 4 4 4 4 4 4 3 4 4 4 4 4 3 3 3 2 2 3 3 5 7 6 7 8 6 7 8 8 8 7
5 5 6 6 6 6 5 4 3 2 3 3 3 3 4 5 5 4 4 4 3 3 4 4 5 6 5 4 4 3 3 4 2 3 5 6 6 6 7 6 8 8 8
4 4 5 5 6 6 5 4 4 3 3 3 4 4 5 5 5 5 4 4 3 3 4 4 4 4 5 5 3 4 4 2 2 3 2 3 4 6 6 5 6 7 7
4 4 4 5 5 5 5 5 4 3 3 4 4 5 5 5 5 5 5 4 4 3 4 4 4 4 4 5 4 3 4 4 4 3 4 2 2 3 4 4 4 4 5
3 3 4 5 5 5 5 5 4 5 5 5 5 5 5 4 4 5 5 5 4 3 4 4 4 4 4 5 4 3 3 3 3 4 5 4 4 3 3 2 3 3 3
Wind_Direction
316 303 164 130 137 133 131 126 124 122 122 124 125 126 127 127 128 129 130 129 127 123 120 116 114 113 110 109 107 104 102 96 93 89 86 92 97 97 94 91 86 79 87
279 288 125 121 131 133 132 128 125 125 128 129 130 132 133 132 131 132 134 133 134 132 128 125 121 118 114 113 111 107 103 98 94 87 79 81 92 97 98 99 97 95 92
336 3 117 117 122 126 128 127 129 127 130 133 135 137 139 139 138 140 141 140 139 140 137 130 125 122 120 119 117 115 110 105 98 89 79 67 87 100 102 104 102 99 96
29 49 75 110 119 124 125 125 127 129 129 132 140 143 144 145 145 148 147 146 143 142 139 134 131 129 126 125 127 125 119 114 103 91 74 61 71 107 108 107 104 101 99
46 45 50 84 110 119 122 124 127 128 129 132 137 146 152 156 158 159 156 151 148 145 145 146 142 139 136 135 136 135 131 125 110 95 84 64 47 116 113 109 108 105 104
48 44 45 64 81 97 109 117 124 126 128 132 137 145 156 168 174 172 164 157 156 156 158 159 156 150 147 146 146 143 140 133 116 110 110 95 48 127 121 117 118 117 112
43 35 40 52 58 62 77 97 112 122 129 133 141 148 159 169 179 177 172 170 172 172 173 172 169 165 162 161 159 154 147 141 132 136 147 171 203 154 139 132 128 127 123
47 38 36 37 44 45 46 48 58 109 131 141 146 158 162 168 173 174 177 181 187 189 187 184 183 180 176 174 169 164 154 150 149 157 175 206 214 176 159 151 145 141 134
43 38 31 28 29 30 31 31 26 18 10 225 225 260 270 274 204 191 190 193 198 198 196 195 193 190 187 184 177 169 163 158 152 172 189 208 216 194 178 170 169 166 159
37 31 25 22 22 16 13 18 17 13 5 346 329 326 313 286 274 239 210 211 208 204 200 200 200 198 196 192 186 178 173 159 166 183 197 219 219 204 196 187 186 186 184
25 19 18 15 13 7 4 12 11 6 2 355 339 329 317 281 266 254 241 232 221 213 208 206 205 204 199 197 194 187 176 170 178 196 208 228 220 213 211 204 200 202 200
11 6 12 8 4 3 1 3 358 0 353 351 344 333 312 284 260 264 250 240 234 225 219 217 214 209 198 192 199 192 181 183 191 206 217 228 226 223 220 216 212 211 211
0 4 3 2 0 3 357 353 351 352 348 344 342 329 311 293 282 268 249 245 240 233 224 224 220 209 198 194 196 196 194 192 200 213 223 229 230 230 227 223 219 218 218
8 0 356 358 1 358 357 347 340 344 342 340 334 334 330 305 287 268 245 242 232 231 227 218 213 212 210 208 205 206 207 206 208 212 225 230 233 234 233 230 225 223 223
10 358 352 355 360 355 354 344 347 332 326 320 325 326 320 288 272 261 252 244 239 235 229 228 222 216 217 218 217 215 219 219 218 216 225 229 232 236 238 237 233 229 227
4 354 347 352 356 355 354 342 333 330 325 324 320 311 303 282 268 261 254 247 242 238 232 227 227 225 225 222 227 225 225 223 224 223 222 230 233 236 239 240 239 237 233
352 350 349 348 356 351 344 336 333 325 326 322 316 311 304 291 272 261 254 250 245 242 238 233 230 227 230 230 234 234 232 228 228 227 224 222 228 233 236 240 241 240 237
353 350 348 352 350 344 338 326 322 323 324 316 312 312 306 299 290 272 261 255 251 242 236 236 229 230 233 234 238 237 234 232 232 230 227 224 222 228 232 237 242 242 240
351 345 344 346 346 339 331 323 316 316 318 314 315 313 310 304 296 280 268 264 256 243 235 239 233 228 235 239 243 241 236 234 233 230 227 225 223 223 224 230 234 240 242
350 348 344 342 343 337 331 327 323 321 320 318 314 312 312 307 302 290 281 273 262 251 244 240 239 235 235 236 248 249 241 237 231 228 231 229 226 225 222 225 228 237 240
356 356 346 343 341 345 342 339 330 323 318 322 318 317 313 310 307 294 292 282 264 251 249 246 240 241 237 223 237 256 251 235 232 231 228 227 230 227 221 221 224 227 235
345 344 341 342 340 341 332 316 292 292 294 294 306 316 318 319 317 310 300 288 273 263 255 246 238 241 242 210 214 244 266 263 240 234 228 228 231 226 226 226 222 224 229
337 337 337 334 335 335 332 324 320 317 314 323 328 328 329 326 322 313 302 289 279 264 263 256 241 235 242 228 209 212 226 240 270 250 232 230 228 226 230 229 226 225 225
317 322 325 328 331 333 336 338 336 334 320 312 318 316 322 326 325 322 311 301 289 277 268 262 255 246 240 242 232 229 237 225 226 271 273 246 240 239 236 234 229 228 226
309 317 320 325 328 334 339 339 334 321 308 310 319 321 326 330 333 332 323 314 304 293 286 277 268 257 247 247 239 238 243 246 236 241 267 272 268 250 242 239 238 235 230
307 318 324 325 328 336 339 340 337 326 323 327 331 331 331 330 333 340 333 324 310 302 294 286 274 263 256 252 248 239 234 238 236 233 252 263 263 266 253 243 244 246 240